SCP
0 0 0 0 0 0 0 0 0 -0 0 0 0 0 0 -0 0 0 0 1 0 0 1 0 0 0 0 0 0 0 0 0 0 0 0 0 0 0 0 0 0 0 0 0
0 0 0 0 0 0 0 0 0 0 0 0 0 0 0 -0 0 -0 0 1 0 0 0 0 0 0 0 0 0 0 0 0 0 0 -0 0 0 -0 0 0 0 0 0 0
0 0 0 0 0 0 0 0 0 0 0 0 0 0 -0 -0 0 0 0 -1 -0 0 0 0 0 0 0 0 0 0 0 0 0 0 0 0 0 0 0 0 0 0 0 0
0 0 0 0 0 0 -0 -0 0 0 0 -0 -0 -0 -0 -0 -0 0 0 1 1 1 1 0 0 0 0 0 0 0 0 0 0 0 0 0 0 0 0 0 0 0 0 0
0 0 0 0 0 0 -0 -0 0 -0 0 0 0 0 0 0 0 2 3 2 2 1 0 0 0 0 0 0 0 0 0 0 0 0 0 0 0 0 0 0 0 0 0 0
0 0 0 0 0 1 -0 0 0 -0 0 0 1 5 1 1 2 3 3 2 2 1 1 0 0 0 0 0 0 0 0 0 0 0 0 0 0 0 0 0 0 0 -0 0
0 0 0 0 0 0 0 0 0 0 0 1 2 3 3 2 2 1 1 2 2 2 2 1 0 0 0 0 0 0 0 0 0 0 0 0 0 0 0 0 0 0 0 0
0 0 0 0 0 0 0 0 0 0 0 0 0 1 3 2 2 1 1 2 2 1 1 1 1 1 1 0 0 0 0 1 0 0 0 0 0 0 0 0 0 0 0 0
0 0 0 -0 -0 0 0 0 0 0 0 0 0 0 1 5 7 5 0 1 1 1 1 1 1 1 1 1 0 0 0 1 1 1 1 1 0 0 0 0 0 0 0 0
-0 0 0 -0 -0 -0 -0 0 0 0 0 1 1 0 2 4 4 2 0 1 0 0 0 1 0 0 1 0 0 1 1 1 1 0 0 0 0 0 0 0 0 0 0 0
0 0 0 -0 0 -0 -0 0 0 0 0 0 0 1 3 3 0 0 0 0 0 0 0 0 0 0 0 0 0 0 0 0 0 0 0 0 0 0 0 0 0 0 0 0
-0 -0 -0 -0 -0 -0 -0 -0 0 0 0 0 0 0 2 1 0 1 0 0 0 0 0 0 0 0 0 0 0 0 0 0 0 0 0 0 0 0 0 0 0 0 0 0
-0 -0 -0 -0 -0 -0 -0 0 0 0 0 0 0 0 0 0 0 0 0 0 0 0 0 0 0 0 0 0 0 0 0 0 0 0 0 0 0 0 0 0 0 0 0 0
-0 -0 -0 -0 -0 -0 -0 -0 -0 0 0 -0 0 0 0 -0 0 0 0 -0 0 0 0 0 0 0 -0 0 0 0 0 0 0 0 0 0 0 0 0 0 0 0 0 0
-0 -0 -0 -0 -0 -0 -0 -0 -0 -0 -0 -0 -0 -0 -0 0 0 0 0 0 0 0 0 0 0 0 -0 0 0 0 -0 0 0 0 0 0 0 0 0 0 0 0 0 0
-0 0 0 -0 -0 0 -0 -0 0 0 0 0 0 0 0 0 0 0 0 0 0 0 0 0 0 -0 0 0 0 0 0 -0 0 0 0 0 0 0 0 0 0 0 0 0
0 0 0 -0 -0 0 0 0 0 0 0 0 0 0 0 0 0 0 0 0 0 0 0 0 0 0 0 0 0 0 0 0 0 0 0 0 0 0 0 0 0 0 0 0
0 0 0 0 0 0 0 0 0 0 0 0 0 0 0 0 0 0 0 0 0 0 0 0 0 0 0 0 0 0 0 0 0 0 0 0 0 0 0 0 0 0 0 0
0 0 0 0 0 0 0 -0 0 0 0 0 0 0 0 0 0 0 0 0 0 0 0 0 0 0 0 0 0 0 0 0 0 0 0 0 0 0 0 0 0 0 0 0
0 0 0 0 0 0 0 0 0 0 0 0 0 0 0 0 0 0 0 0 0 0 0 0 0 0 0 0 0 0 0 0 0 0 0 0 0 0 0 0 0 0 0 0
0 0 0 0 0 0 0 0 0 0 0 0 0 0 0 0 0 0 0 0 0 0 0 0 0 0 0 0 0 0 0 0 0 0 0 0 0 0 0 0 0 0 0 0
0 0 0 0 0 0 0 0 0 0 0 0 0 0 0 0 0 0 0 0 0 0 0 0 0 0 0 0 0 0 0 0 0 0 0 0 0 0 0 0 0 0 0 0
-0 0 0 0 0 0 0 0 0 0 0 0 0 0 0 0 0 0 0 0 0 0 0 0 0 0 0 0 0 0 0 0 0 0 0 0 0 0 0 0 0 0 0 0
0 0 0 0 0 0 0 0 0 0 0 0 0 0 0 0 0 0 0 0 0 0 0 0 0 0 0 0 0 0 0 0 0 0 0 0 0 0 0 0 0 0 0 0
0 0 0 0 0 0 0 0 0 0 0 0 0 0 0 -0 -0 0 0 0 0 0 0 0 0 0 0 0 0 0 0 0 0 0 0 0 0 0 0 0 0 0 0 0
0 0 0 0 0 0 0 0 0 0 0 0 0 0 0 -0 -0 -0 -0 0 0 0 0 0 0 0 0 0 0 0 0 0 0 0 0 0 0 0 0 0 0 0 0 0
0 0 0 0 0 0 0 0 0 0 0 0 -0 -0 -0 -0 -0 -0 -0 -0 -0 -0 -0 -0 -0 -0 -0 -0 -0 0 0 -0 -0 0 -0 -0 0 0 0 -0 -0 0 0 0
Wind_Speed_500mb
10 11 6 3 12 18 5 12 8 21 21 20 31 26 45 53 69 27 6 53 55 54 53 46 38 33 32 29 33 33 34 30 26 22 15 11 13 18 19 17 17 15 12 11
10 12 12 5 16 14 15 6 11 27 5 15 34 25 19 27 31 34 28 49 45 41 47 41 40 31 27 36 39 37 34 31 26 22 16 9 9 14 13 16 17 11 11 6
9 9 12 7 8 8 9 9 15 12 18 37 27 34 49 46 35 44 55 57 48 41 33 39 39 22 29 40 40 36 31 29 27 22 16 12 12 16 15 13 13 10 10 3
6 10 2 15 10 6 4 2 19 20 40 70 66 77 66 57 58 45 55 44 41 42 38 37 30 26 34 34 35 33 30 30 28 27 23 19 19 18 18 19 16 15 8 8
4 6 10 15 12 13 12 15 18 10 23 44 61 44 39 62 41 49 55 46 46 41 37 38 35 38 35 30 30 31 30 32 28 27 27 28 26 19 19 23 17 21 15 11
3 2 4 4 22 34 5 8 36 13 9 19 29 6 9 11 33 63 56 50 40 41 38 39 45 48 36 30 26 31 31 27 22 23 24 28 31 25 23 20 17 21 22 19
6 8 6 22 43 25 4 13 63 35 18 41 10 13 15 36 39 7 37 47 43 43 46 50 47 46 39 26 17 20 24 20 21 23 21 20 29 32 29 28 25 23 26 25
2 5 7 59 15 13 14 39 46 22 6 14 23 34 37 26 22 11 20 26 36 41 47 47 47 41 31 16 15 22 25 27 27 26 25 28 29 32 33 34 34 32 32 30
7 7 8 45 43 31 21 25 47 33 33 21 10 4 10 16 25 29 28 19 25 35 45 46 44 42 37 26 21 31 33 30 34 30 34 36 34 27 29 35 39 44 42 41
7 3 9 19 8 26 23 27 30 27 36 44 44 37 24 21 23 21 33 16 18 25 31 41 44 43 39 31 28 31 35 38 37 39 35 37 39 33 32 34 39 43 45 47
3 8 15 10 37 34 26 18 18 30 30 33 49 45 28 30 48 40 29 14 9 11 26 35 35 38 36 35 35 37 36 36 34 30 28 29 31 32 34 38 43 42 47 49
5 5 4 18 35 33 32 38 26 12 20 45 45 47 40 41 51 56 31 14 11 16 16 17 15 10 10 11 15 19 20 20 18 17 21 22 24 30 34 36 40 46 46 54
9 10 3 10 19 22 18 36 31 16 74 59 49 22 37 41 44 41 28 19 16 23 23 23 26 21 22 17 10 4 4 11 16 16 17 19 19 23 28 33 41 46 53 56
19 15 3 9 2 15 9 18 21 32 63 84 42 54 58 55 40 38 30 21 21 22 18 17 18 15 15 17 14 17 17 16 11 15 18 19 21 23 27 30 29 28 29 34
13 7 9 16 17 7 7 7 11 33 33 26 27 59 51 26 17 14 15 17 17 8 7 1 0 3 11 17 20 22 23 24 22 19 18 20 20 23 26 29 35 29 30 31
5 8 16 23 18 13 8 14 20 27 30 29 29 23 22 17 21 19 23 22 14 10 4 5 7 12 20 19 20 20 24 27 30 26 20 19 22 25 25 26 27 25 28 26
8 14 18 14 9 2 6 13 12 12 25 41 43 37 35 30 26 17 12 12 7 1 3 6 12 21 24 21 27 26 25 28 27 25 22 18 21 25 24 25 24 24 26 26
12 14 20 11 10 11 12 13 9 8 15 17 13 19 26 22 25 17 9 7 5 3 8 10 15 23 26 28 25 27 29 30 26 20 11 20 23 22 24 25 27 26 25 22
9 8 14 13 12 19 22 24 24 10 5 6 11 15 13 8 3 3 7 10 8 12 13 18 17 28 33 33 34 29 33 31 24 21 21 23 25 25 31 36 38 37 35 35
27 24 27 21 16 13 12 10 11 10 10 12 10 12 16 18 16 16 23 22 19 19 25 30 34 37 34 31 33 31 32 30 22 20 17 20 22 28 37 36 35 36 36 39
4 18 22 20 14 9 7 7 7 11 13 19 18 18 21 26 28 27 34 35 34 33 33 34 36 41 40 37 38 35 30 28 27 20 21 20 24 31 34 27 23 28 32 30
9 8 12 12 9 7 10 9 14 18 18 23 25 27 30 33 32 30 30 33 36 41 44 45 40 37 32 26 26 30 29 29 27 25 23 22 29 31 27 24 23 24 21 19
22 15 8 8 7 7 12 18 14 16 17 18 23 28 24 24 27 26 23 26 30 28 34 35 31 36 41 34 28 28 25 25 30 31 25 24 24 28 27 20 19 21 16 21
6 4 6 10 5 2 3 6 6 11 17 19 19 21 26 29 25 23 26 26 22 25 27 26 21 13 12 15 15 15 19 19 16 14 14 13 15 14 15 13 11 8 9 13
5 6 4 10 8 9 4 2 3 6 8 10 19 33 35 29 24 21 18 19 21 19 19 19 20 19 14 15 15 13 10 9 10 8 8 7 8 8 9 10 12 16 18 21
7 6 7 4 4 7 6 3 8 12 9 14 18 29 45 49 43 32 25 23 24 27 31 30 26 25 25 26 23 22 23 24 22 20 19 14 9 7 11 11 10 16 23 24
9 10 8 8 11 8 13 13 14 13 14 22 27 28 27 29 37 47 51 48 40 36 35 34 34 33 31 29 29 33 37 37 35 32 31 33 35 40 36 31 24 19 23 24
Wind_Direction_500mb
197 174 90 313 334 341 221 228 168 179 174 188 211 206 202 184 193 206 241 161 160 168 174 192 180 179 186 194 181 165 156 152 156 155 145 154 167 154 144 135 134 146 120 103
330 350 54 18 325 329 290 108 84 151 187 163 200 228 213 222 197 227 188 176 166 182 186 183 182 184 194 194 174 160 157 154 153 153 150 162 168 188 159 137 150 154 115 75
289 341 4 12 199 272 297 287 136 172 198 160 196 210 211 221 209 210 196 172 173 182 193 187 189 185 186 175 168 161 161 160 157 169 168 181 202 193 186 172 180 189 169 120
276 23 336 241 285 246 242 78 347 298 158 176 185 198 204 212 209 192 189 178 180 195 191 188 196 171 173 173 170 168 171 169 169 185 193 199 204 217 220 220 234 235 208 217
169 180 284 319 18 25 37 308 344 296 151 178 189 189 209 203 197 187 175 176 183 192 194 193 188 181 175 165 173 176 173 171 179 198 212 217 219 230 234 239 247 235 238 227
121 124 260 268 317 318 281 270 355 354 151 145 128 96 285 283 194 167 167 172 180 188 195 196 193 189 183 179 178 184 184 173 183 207 220 231 233 239 234 223 237 245 241 230
204 208 275 343 335 324 65 295 327 320 153 140 120 150 142 163 165 193 165 175 181 181 186 193 195 194 193 187 195 193 198 196 211 228 236 242 239 242 245 240 239 239 243 241
66 154 304 350 14 61 290 312 327 283 276 3 106 114 135 143 115 328 218 184 183 184 180 182 188 192 190 215 202 199 220 223 223 236 251 249 244 237 246 245 242 245 244 244
66 108 120 88 101 44 8 349 347 315 271 264 270 324 87 116 150 217 254 196 173 176 179 181 185 187 190 205 211 220 221 225 233 237 247 251 254 252 246 244 244 244 244 247
119 60 311 69 86 19 18 0 334 314 279 254 237 247 209 169 144 213 231 211 207 190 192 188 185 191 200 207 202 214 218 219 225 226 235 245 249 247 246 257 256 259 249 249
83 273 3 353 359 9 349 321 316 296 285 278 288 247 202 176 170 255 244 195 157 189 205 205 206 206 205 218 220 219 218 221 223 228 238 247 251 257 264 266 263 263 262 258
209 240 211 288 344 360 6 9 337 277 291 288 271 253 208 185 180 196 206 191 149 132 137 141 135 154 163 190 215 216 204 201 215 224 241 251 254 256 257 258 257 257 256 248
174 158 42 3 25 24 55 24 29 29 5 329 250 216 215 177 195 178 165 150 110 112 104 104 101 93 85 87 84 69 223 201 209 228 246 256 265 278 283 283 272 259 254 254
150 135 284 315 104 28 23 33 29 33 31 358 250 211 227 229 179 156 145 114 106 94 85 80 66 48 43 42 22 13 6 346 295 257 259 269 276 285 295 308 297 276 265 258
193 234 270 316 347 327 350 351 349 60 85 79 61 174 191 144 129 125 126 123 114 109 137 85 108 19 348 341 329 333 348 357 339 313 289 286 280 287 294 297 300 278 272 264
200 283 275 286 291 299 333 17 19 81 98 122 136 151 151 162 144 137 143 150 163 174 197 255 302 351 339 313 302 308 324 340 346 340 319 287 284 290 293 300 308 295 280 275
52 32 37 45 55 46 13 46 40 100 78 96 98 109 110 99 102 130 143 154 154 50 4 13 342 339 342 317 297 298 308 321 333 335 294 297 296 296 292 290 291 292 285 284
61 43 44 49 46 60 68 68 89 117 107 100 110 90 77 84 96 101 146 173 244 300 43 1 345 321 313 309 307 299 301 312 319 317 306 286 294 295 282 284 286 286 288 286
42 29 24 35 36 68 68 64 60 61 3 1 359 14 57 66 103 280 283 290 276 282 275 271 271 285 290 287 292 297 299 307 315 299 281 291 302 302 298 295 293 292 288 280
77 85 93 91 82 80 64 42 19 36 357 332 344 311 310 313 316 304 307 304 314 307 296 287 281 282 279 279 276 282 295 295 290 309 291 302 297 309 315 309 289 286 275 275
133 74 93 96 90 65 50 20 340 322 321 315 322 325 323 320 315 306 296 297 287 288 291 292 294 294 288 280 274 269 277 276 278 282 289 291 287 298 311 318 291 288 286 285
356 14 23 35 57 54 29 355 333 321 324 330 330 323 318 314 312 309 308 307 296 290 288 283 283 286 286 297 291 292 273 274 268 273 277 287 295 305 305 309 300 287 276 256
5 13 13 327 331 333 320 326 330 327 334 345 344 338 343 346 340 333 330 322 321 322 326 321 300 282 276 289 309 295 281 285 280 282 282 281 309 313 317 326 303 293 246 223
354 358 316 332 17 53 25 46 42 11 355 4 25 23 3 352 345 326 325 325 336 349 337 330 330 343 329 313 306 290 295 306 317 317 318 303 284 314 345 347 334 292 247 234
285 229 171 159 133 108 52 34 332 346 83 71 52 43 36 25 22 17 14 40 36 29 24 32 37 32 28 29 28 28 27 48 67 54 56 68 63 67 52 28 7 1 341 331
225 208 141 145 163 136 143 114 117 124 111 74 71 64 56 56 55 52 55 58 56 56 60 61 65 67 65 68 65 73 79 77 69 65 67 73 68 13 341 354 33 61 67 50
191 161 130 81 108 113 148 137 133 128 122 108 104 82 66 52 54 60 64 65 67 67 69 73 73 68 65 66 72 76 78 75 76 72 72 78 84 82 70 83 74 42 23 25
Wind_Speed_850mb
10 11 6 3 12 18 5 12 8 21 21 20 31 26 45 53 69 27 6 53 55 54 53 46 38 33 32 29 33 33 34 30 26 22 15 11 13 18 19 17 17 15 12 11
10 12 12 5 16 14 15 6 11 27 5 15 34 25 19 27 31 34 28 49 45 41 47 41 40 31 27 36 39 37 34 31 26 22 16 9 9 14 13 16 17 11 11 6
9 9 12 7 8 8 9 9 15 12 18 37 27 34 49 46 35 44 55 57 48 41 33 39 39 22 29 40 40 36 31 29 27 22 16 12 12 16 15 13 13 10 10 3
6 10 2 15 10 6 4 2 19 20 40 70 66 77 66 57 58 45 55 44 41 42 38 37 30 26 34 34 35 33 30 30 28 27 23 19 19 18 18 19 16 15 8 8
4 6 10 15 12 13 12 15 18 10 23 44 61 44 39 62 41 49 55 46 46 41 37 38 35 38 35 30 30 31 30 32 28 27 27 28 26 19 19 23 17 21 15 11
3 2 4 4 22 34 5 8 36 13 9 19 29 6 9 11 33 63 56 50 40 41 38 39 45 48 36 30 26 31 31 27 22 23 24 28 31 25 23 20 17 21 22 19
6 8 6 22 43 25 4 13 63 35 18 41 10 13 15 36 39 7 37 47 43 43 46 50 47 46 39 26 17 20 24 20 21 23 21 20 29 32 29 28 25 23 26 25
2 5 7 59 15 13 14 39 46 22 6 14 23 34 37 26 22 11 20 26 36 41 47 47 47 41 31 16 15 22 25 27 27 26 25 28 29 32 33 34 34 32 32 30
7 7 8 45 43 31 21 25 47 33 33 21 10 4 10 16 25 29 28 19 25 35 45 46 44 42 37 26 21 31 33 30 34 30 34 36 34 27 29 35 39 44 42 41
7 3 9 19 8 26 23 27 30 27 36 44 44 37 24 21 23 21 33 16 18 25 31 41 44 43 39 31 28 31 35 38 37 39 35 37 39 33 32 34 39 43 45 47
3 8 15 10 37 34 26 18 18 30 30 33 49 45 28 30 48 40 29 14 9 11 26 35 35 38 36 35 35 37 36 36 34 30 28 29 31 32 34 38 43 42 47 49
5 5 4 18 35 33 32 38 26 12 20 45 45 47 40 41 51 56 31 14 11 16 16 17 15 10 10 11 15 19 20 20 18 17 21 22 24 30 34 36 40 46 46 54
9 10 3 10 19 22 18 36 31 16 74 59 49 22 37 41 44 41 28 19 16 23 23 23 26 21 22 17 10 4 4 11 16 16 17 19 19 23 28 33 41 46 53 56
19 15 3 9 2 15 9 18 21 32 63 84 42 54 58 55 40 38 30 21 21 22 18 17 18 15 15 17 14 17 17 16 11 15 18 19 21 23 27 30 29 28 29 34
13 7 9 16 17 7 7 7 11 33 33 26 27 59 51 26 17 14 15 17 17 8 7 1 0 3 11 17 20 22 23 24 22 19 18 20 20 23 26 29 35 29 30 31
5 8 16 23 18 13 8 14 20 27 30 29 29 23 22 17 21 19 23 22 14 10 4 5 7 12 20 19 20 20 24 27 30 26 20 19 22 25 25 26 27 25 28 26
8 14 18 14 9 2 6 13 12 12 25 41 43 37 35 30 26 17 12 12 7 1 3 6 12 21 24 21 27 26 25 28 27 25 22 18 21 25 24 25 24 24 26 26
12 14 20 11 10 11 12 13 9 8 15 17 13 19 26 22 25 17 9 7 5 3 8 10 15 23 26 28 25 27 29 30 26 20 11 20 23 22 24 25 27 26 25 22
9 8 14 13 12 19 22 24 24 10 5 6 11 15 13 8 3 3 7 10 8 12 13 18 17 28 33 33 34 29 33 31 24 21 21 23 25 25 31 36 38 37 35 35
27 24 27 21 16 13 12 10 11 10 10 12 10 12 16 18 16 16 23 22 19 19 25 30 34 37 34 31 33 31 32 30 22 20 17 20 22 28 37 36 35 36 36 39
4 18 22 20 14 9 7 7 7 11 13 19 18 18 21 26 28 27 34 35 34 33 33 34 36 41 40 37 38 35 30 28 27 20 21 20 24 31 34 27 23 28 32 30
9 8 12 12 9 7 10 9 14 18 18 23 25 27 30 33 32 30 30 33 36 41 44 45 40 37 32 26 26 30 29 29 27 25 23 22 29 31 27 24 23 24 21 19
22 15 8 8 7 7 12 18 14 16 17 18 23 28 24 24 27 26 23 26 30 28 34 35 31 36 41 34 28 28 25 25 30 31 25 24 24 28 27 20 19 21 16 21
6 4 6 10 5 2 3 6 6 11 17 19 19 21 26 29 25 23 26 26 22 25 27 26 21 13 12 15 15 15 19 19 16 14 14 13 15 14 15 13 11 8 9 13
5 6 4 10 8 9 4 2 3 6 8 10 19 33 35 29 24 21 18 19 21 19 19 19 20 19 14 15 15 13 10 9 10 8 8 7 8 8 9 10 12 16 18 21
7 6 7 4 4 7 6 3 8 12 9 14 18 29 45 49 43 32 25 23 24 27 31 30 26 25 25 26 23 22 23 24 22 20 19 14 9 7 11 11 10 16 23 24
9 10 8 8 11 8 13 13 14 13 14 22 27 28 27 29 37 47 51 48 40 36 35 34 34 33 31 29 29 33 37 37 35 32 31 33 35 40 36 31 24 19 23 24
Wind_Direction_850mb
197 174 90 313 334 341 221 228 168 179 174 188 211 206 202 184 193 206 241 161 160 168 174 192 180 179 186 194 181 165 156 152 156 155 145 154 167 154 144 135 134 146 120 103
330 350 54 18 325 329 290 108 84 151 187 163 200 228 213 222 197 227 188 176 166 182 186 183 182 184 194 194 174 160 157 154 153 153 150 162 168 188 159 137 150 154 115 75
289 341 4 12 199 272 297 287 136 172 198 160 196 210 211 221 209 210 196 172 173 182 193 187 189 185 186 175 168 161 161 160 157 169 168 181 202 193 186 172 180 189 169 120
276 23 336 241 285 246 242 78 347 298 158 176 185 198 204 212 209 192 189 178 180 195 191 188 196 171 173 173 170 168 171 169 169 185 193 199 204 217 220 220 234 235 208 217
169 180 284 319 18 25 37 308 344 296 151 178 189 189 209 203 197 187 175 176 183 192 194 193 188 181 175 165 173 176 173 171 179 198 212 217 219 230 234 239 247 235 238 227
121 124 260 268 317 318 281 270 355 354 151 145 128 96 285 283 194 167 167 172 180 188 195 196 193 189 183 179 178 184 184 173 183 207 220 231 233 239 234 223 237 245 241 230
204 208 275 343 335 324 65 295 327 320 153 140 120 150 142 163 165 193 165 175 181 181 186 193 195 194 193 187 195 193 198 196 211 228 236 242 239 242 245 240 239 239 243 241
66 154 304 350 14 61 290 312 327 283 276 3 106 114 135 143 115 328 218 184 183 184 180 182 188 192 190 215 202 199 220 223 223 236 251 249 244 237 246 245 242 245 244 244
66 108 120 88 101 44 8 349 347 315 271 264 270 324 87 116 150 217 254 196 173 176 179 181 185 187 190 205 211 220 221 225 233 237 247 251 254 252 246 244 244 244 244 247
119 60 311 69 86 19 18 0 334 314 279 254 237 247 209 169 144 213 231 211 207 190 192 188 185 191 200 207 202 214 218 219 225 226 235 245 249 247 246 257 256 259 249 249
83 273 3 353 359 9 349 321 316 296 285 278 288 247 202 176 170 255 244 195 157 189 205 205 206 206 205 218 220 219 218 221 223 228 238 247 251 257 264 266 263 263 262 258
209 240 211 288 344 360 6 9 337 277 291 288 271 253 208 185 180 196 206 191 149 132 137 141 135 154 163 190 215 216 204 201 215 224 241 251 254 256 257 258 257 257 256 248
174 158 42 3 25 24 55 24 29 29 5 329 250 216 215 177 195 178 165 150 110 112 104 104 101 93 85 87 84 69 223 201 209 228 246 256 265 278 283 283 272 259 254 254
150 135 284 315 104 28 23 33 29 33 31 358 250 211 227 229 179 156 145 114 106 94 85 80 66 48 43 42 22 13 6 346 295 257 259 269 276 285 295 308 297 276 265 258
193 234 270 316 347 327 350 351 349 60 85 79 61 174 191 144 129 125 126 123 114 109 137 85 108 19 348 341 329 333 348 357 339 313 289 286 280 287 294 297 300 278 272 264
200 283 275 286 291 299 333 17 19 81 98 122 136 151 151 162 144 137 143 150 163 174 197 255 302 351 339 313 302 308 324 340 346 340 319 287 284 290 293 300 308 295 280 275
52 32 37 45 55 46 13 46 40 100 78 96 98 109 110 99 102 130 143 154 154 50 4 13 342 339 342 317 297 298 308 321 333 335 294 297 296 296 292 290 291 292 285 284
61 43 44 49 46 60 68 68 89 117 107 100 110 90 77 84 96 101 146 173 244 300 43 1 345 321 313 309 307 299 301 312 319 317 306 286 294 295 282 284 286 286 288 286
42 29 24 35 36 68 68 64 60 61 3 1 359 14 57 66 103 280 283 290 276 282 275 271 271 285 290 287 292 297 299 307 315 299 281 291 302 302 298 295 293 292 288 280
77 85 93 91 82 80 64 42 19 36 357 332 344 311 310 313 316 304 307 304 314 307 296 287 281 282 279 279 276 282 295 295 290 309 291 302 297 309 315 309 289 286 275 275
133 74 93 96 90 65 50 20 340 322 321 315 322 325 323 320 315 306 296 297 287 288 291 292 294 294 288 280 274 269 277 276 278 282 289 291 287 298 311 318 291 288 286 285
356 14 23 35 57 54 29 355 333 321 324 330 330 323 318 314 312 309 308 307 296 290 288 283 283 286 286 297 291 292 273 274 268 273 277 287 295 305 305 309 300 287 276 256
5 13 13 327 331 333 320 326 330 327 334 345 344 338 343 346 340 333 330 322 321 322 326 321 300 282 276 289 309 295 281 285 280 282 282 281 309 313 317 326 303 293 246 223
354 358 316 332 17 53 25 46 42 11 355 4 25 23 3 352 345 326 325 325 336 349 337 330 330 343 329 313 306 290 295 306 317 317 318 303 284 314 345 347 334 292 247 234
285 229 171 159 133 108 52 34 332 346 83 71 52 43 36 25 22 17 14 40 36 29 24 32 37 32 28 29 28 28 27 48 67 54 56 68 63 67 52 28 7 1 341 331
225 208 141 145 163 136 143 114 117 124 111 74 71 64 56 56 55 52 55 58 56 56 60 61 65 67 65 68 65 73 79 77 69 65 67 73 68 13 341 354 33 61 67 50
191 161 130 81 108 113 148 137 133 128 122 108 104 82 66 52 54 60 64 65 67 67 69 73 73 68 65 66 72 76 78 75 76 72 72 78 84 82 70 83 74 42 23 25